TimePST,TemperatureF,Dew PointF,Humidity,Sea Level PressureIn,VisibilityMPH,Wind Direction,Wind SpeedMPH,Gust SpeedMPH,PrecipitationIn,Events,Conditions,WindDirDegrees,DateUTC
12:52 AM,53.1,46.9,80,30.04,4.0,Calm,Calm,-,N/A,,Partly Cloudy,0,2012-12-11 08:52:00
1:52 AM,54.0,48.9,83,30.04,6.0,Calm,Calm,-,N/A,,Partly Cloudy,0,2012-12-11 09:52:00
2:52 AM,52.0,46.0,80,30.04,9.0,Calm,Calm,-,N/A,,Partly Cloudy,0,2012-12-11 10:52:00
3:52 AM,51.1,45.0,80,30.03,10.0,Calm,Calm,-,N/A,,Partly Cloudy,0,2012-12-11 11:52:00
4:52 AM,51.1,45.0,80,30.02,10.0,Calm,Calm,-,N/A,,Partly Cloudy,0,2012-12-11 12:52:00
5:52 AM,51.1,43.0,74,30.03,10.0,NNW,3.5,-,N/A,,Scattered Clouds,330,2012-12-11 13:52:00
6:52 AM,52.0,44.1,74,30.04,9.0,North,4.6,-,N/A,,Scattered Clouds,350,2012-12-11 14:52:00
7:52 AM,54.0,46.0,75,30.04,10.0,Calm,Calm,-,N/A,,Scattered Clouds,0,2012-12-11 15:52:00
8:52 AM,61.0,46.0,58,30.05,9.0,Calm,Calm,-,N/A,,Scattered Clouds,0,2012-12-11 16:52:00
9:52 AM,66.0,41.0,40,30.04,10.0,Calm,Calm,-,N/A,,Scattered Clouds,0,2012-12-11 17:52:00
10:52 AM,71.1,34.0,26,30.02,10.0,Calm,Calm,-,N/A,,Scattered Clouds,0,2012-12-11 18:52:00
11:52 AM,72.0,45.0,38,29.99,9.0,NW,6.9,-,N/A,,Scattered Clouds,320,2012-12-11 19:52:00
12:52 PM,71.1,46.0,41,29.96,9.0,WNW,8.1,-,N/A,,Scattered Clouds,300,2012-12-11 20:52:00
1:52 PM,70.0,53.1,55,29.95,9.0,NW,8.1,-,N/A,,Scattered Clouds,310,2012-12-11 21:52:00
2:52 PM,68.0,54.0,61,29.95,7.0,NNW,9.2,-,N/A,,Partly Cloudy,340,2012-12-11 22:52:00
3:52 PM,64.9,55.0,70,29.96,8.0,NW,10.4,-,N/A,,Partly Cloudy,310,2012-12-11 23:52:00
4:52 PM,63.0,55.9,78,29.96,7.0,NW,3.5,-,N/A,,Partly Cloudy,320,2012-12-12 00:52:00
5:52 PM,60.1,55.0,83,29.97,7.0,Calm,Calm,-,N/A,,Partly Cloudy,0,2012-12-12 01:52:00
6:52 PM,59.0,54.0,83,29.98,7.0,Calm,Calm,-,N/A,,Partly Cloudy,0,2012-12-12 02:52:00
7:52 PM,59.0,55.0,87,29.99,7.0,Calm,Calm,-,0.01,,Scattered Clouds,0,2012-12-12 03:52:00
8:52 PM,57.9,55.0,90,29.99,7.0,Calm,Calm,-,N/A,,Scattered Clouds,0,2012-12-12 04:52:00
9:52 PM,57.9,55.0,90,29.99,7.0,SE,4.6,-,N/A,,Mostly Cloudy,140,2012-12-12 05:52:00
10:52 PM,59.0,55.0,87,30.00,6.0,ESE,4.6,-,N/A,,Mostly Cloudy,120,2012-12-12 06:52:00
11:52 PM,57.0,53.1,87,30.00,6.0,East,3.5,-,N/A,,Mostly Cloudy,100,2012-12-12 07:52:00